Showing default

SPIP, 58298

Orbit data source: Space-Track

SPIP, 58298 is a payload satellite owned by Aerospacelab (BE) in SSO that was launched on Sat, 11 Nov 2023 UTC via an FALCON 9 launch vehicle from the Air Force Western Test Range (AFWTR). Payload-class satellites include a variety of spacecraft equipped with specific instruments for various scientific and technological missions. These include communications satellites like Starlink; space stations such as the ISS; scientific satellites like the Hubble; Earth observation satellites from companies like Planet Labs, Umbra, and HawkEye 360; GPS; miniature CubeSats for education and research; and military/defense satellites.

Loading next visibility...
Identifier
58298, 2023-174AU
Orbit
SSO
Country
Flag of BEBE / BEL
Related business
Manufacturer
Aerospacelab
Mission
Operational Commercial Imaging
Bus & Motor
VSP, Unknown motor
Mass
120 kg wet, 120 kg dry
Launch date (UTC)
2023-11-11 (3 years ago)
Launch vehicle
FALCON 9
Launch site
Air Force Western Test Range (AFWTR)
Object type
Payload
Rocket body
Debris
Shape & HBR
Box + 2 Pan, 1.0 m
Radar Cross Section
0.963 m², Large (>1 m²)

Expand to show TLE details & history
Last TLE update: 22 hours ago

TLE from 22 hours ago
0 SPIP
1 58298U 23174AU  26172.54089311  .00003483  00000-0  13134-3 0  9991
2 58298  97.3839 249.0098 0009955 162.0299 198.1294 15.27683197145443
Epoch: 2026-06-21T12:58Z
TLE epoch observation values (Epoch: 2026-06-21T12:58:53.164Z)
Latitude
-0.00006°
Longitude
144.5486°
Altitude
492.335 km
Speed
7.615 km/s
True Right ascension
16h 36m 02s
True Declination
0° 00' 00"
Sunlit
Object was in full shadow at epoch
Visualization orbit readout
Latitude
Unknown
Longitude
Unknown
Altitude
Unknown
Speed
Unknown
Apparent Right ascension
Unknown
Apparent Declination
Unknown
Sunlit
N/A
Visualization observer readout
Local Sidereal Time
21:49:07
Azimuth
Unknown
Elevation
Unknown
Doppler factor
Unknown
Orbital elements
Apogee altitude
486.522 km
Perigee altitude
472.868 km
Semi-major axis
6,857.832 km
Eccentricity
0.001
Inclination
97.3839°
RAAN
249.0098°
Arg. of periapsis
162.0299°
True anomaly
198.09395°
Mean anomaly
198.1294°
Eccentric anomaly
198.11167°
Mean motion
3.82176 °/min
Orbital period
94.2 mins
BSTAR
0.00013134
Loading maneuver chart data...
Computing Atmospheric mass density...

Documentation

Showing up to 5 results
|